K2MKS Weather Reports


time (UTC)temp
F
wind
direction
speed
knots
gust
knots
rain 1hr
in
rain 24hr
in
rain mn
in
humidity
%
barometer
mb
20260505065958 62 161 1.7 4.3 0.00 0.00 0.00 66 1003.0
20260505065459 62 145 1.7 3.5 0.00 0.00 0.00 66 1003.2
20260505064459 62 138 1.7 5.2 0.00 0.00 0.00 66 1003.0
20260505063958 62 172 0.9 5.2 0.00 0.00 0.00 66 1003.1
20260505063458 63 183 1.7 6.1 0.00 0.00 0.00 65 1003.2
20260505062959 63 163 2.6 6.1 0.00 0.00 0.00 64 1003.2
20260505062500 63 149 1.7 4.3 0.00 0.00 0.00 64 1003.2
20260505061959 63 166 1.7 7.8 0.00 0.00 0.00 63 1003.2
20260505060958 63 152 1.7 7.8 0.00 0.00 0.00 61 1003.2
20260505060459 63 209 2.6 7.8 0.00 0.00 0.00 59 1003.2
20260505060002 63 151 2.6 7.0 0.00 0.00 0.00 58 1003.3
20260505055502 63 153 2.6 7.0 0.00 0.00 0.00 57 1003.3
20260505055000 63 165 2.6 5.2 0.00 0.00 0.00 56 1003.1
20260505054000 63 172 1.7 6.1 0.00 0.00 0.00 55 1003.1
20260505053459 63 134 1.7 3.5 0.00 0.00 0.00 55 1003.2
20260505053000 63 172 0.9 4.3 0.00 0.00 0.00 55 1003.2
20260505052505 62 174 0.9 3.5 0.00 0.00 0.00 54 1003.2
20260505051500 62 144 0.9 4.3 0.00 0.00 0.00 55 1003.3
20260505051001 62 160 0.9 3.5 0.00 0.00 0.00 55 1003.3
20260505050500 62 179 0.9 3.5 0.00 0.00 0.00 56 1003.3
20260505041501 62 172 0.9 4.3 0.00 0.00 0.00 50 1003.3
20260505041005 61 162 0.0 2.6 0.00 0.00 0.00 50 1003.3
20260505040504 61 170 0.9 2.6 0.00 0.00 0.00 50 1003.3
20260505035504 61 172 0.9 1.7 0.00 0.00 0.00 51 1003.3
20260505035005 60 217 0.0 2.6 0.00 0.00 0.00 51 1003.3
20260505034500 60 218 0.0 2.6 0.00 0.00 0.00 52 1003.3
20260505033505 60 200 0.0 0.9 0.00 0.00 0.00 52 1003.2
20260505033003 61 198 0.0 0.9 0.00 0.00 0.00 50 1003.3
20260505032502 61 198 0.0 0.9 0.00 0.00 0.00 51 1003.3
20260505032004 61 198 0.0 0.9 0.00 0.00 0.00 50 1003.3
20260505031505 61 188 0.0 1.7 0.00 0.00 0.00 51 1003.3
20260505031001 61 194 0.0 2.6 0.00 0.00 0.00 50 1003.3
20260505030503 61 172 0.0 2.6 0.00 0.00 0.00 50 1003.3
20260505025500 61 193 0.0 1.7 0.00 0.00 0.00 50 1003.3
20260505025004 61 180 0.0 1.7 0.00 0.00 0.00 50 1003.3
20260505024504 61 219 0.0 0.9 0.00 0.00 0.00 51 1003.4
20260505024002 61 211 0.0 0.9 0.00 0.00 0.00 51 1003.3
20260505023502 61 196 0.0 1.7 0.00 0.00 0.00 51 1003.4
20260505023007 60 196 0.0 1.7 0.00 0.00 0.00 51 1003.5
20260505022502 60 189 0.0 1.7 0.00 0.00 0.00 53 1003.4
20260505022004 60 188 0.0 1.7 0.00 0.00 0.00 54 1003.5
20260505021504 59 186 0.0 2.6 0.00 0.00 0.00 54 1003.5
20260505021001 59 182 0.0 2.6 0.00 0.00 0.00 55 1003.4
20260505020504 59 191 0.0 0.0 0.00 0.00 0.00 58 1003.4
20260505020004 59 191 0.0 0.0 0.00 0.01 0.00 57 1003.4
20260505015503 59 191 0.0 0.0 0.00 0.01 0.00 58 1003.4
20260505015000 59 191 0.0 0.0 0.00 0.01 0.00 58 1003.4
20260505014502 59 191 0.0 0.0 0.00 0.01 0.00 56 1003.4
20260505014000 59 191 0.0 0.0 0.00 0.01 0.00 56 1003.3
20260505013504 60 191 0.0 0.0 0.00 0.01 0.00 56 1003.3
20260505012506 60 191 0.0 0.0 0.00 0.01 0.00 55 1003.4
20260505012003 61 191 0.0 0.0 0.00 0.01 0.00 53 1003.5
20260505011506 61 191 0.0 0.0 0.00 0.01 0.00 53 1003.5
20260505011006 61 191 0.0 0.0 0.00 0.01 0.00 51 1003.4
20260505010504 62 191 0.0 0.0 0.00 0.01 0.00 49 1003.4
20260505010005 62 191 0.0 0.0 0.00 0.01 0.00 48 1003.4
20260505005004 63 191 0.0 0.0 0.00 0.01 0.00 48 1003.4
20260505004501 63 191 0.0 0.0 0.00 0.01 0.00 45 1003.3
20260505004000 64 191 0.0 0.0 0.00 0.01 0.00 45 1003.3
20260505003505 64 191 0.0 0.0 0.00 0.01 0.00 45 1003.3
20260505003000 65 191 0.0 0.0 0.00 0.01 0.00 44 1003.3
20260505002500 65 191 0.0 0.0 0.00 0.01 0.00 43 1003.4
20260505002000 66 191 0.0 0.0 0.00 0.01 0.00 43 1003.3
20260505001004 67 191 0.0 0.0 0.00 0.01 0.00 41 1003.4
20260505000503 68 191 0.0 0.0 0.00 0.01 0.00 40 1003.4
20260505000005 68 191 0.0 0.0 0.00 0.01 0.00 42 1003.4
20260504235500 69 191 0.0 0.0 0.00 0.01 0.00 42 1003.3
20260504235004 70 191 0.0 0.0 0.00 0.01 0.00 42 1003.3
20260504234504 70 191 0.0 0.0 0.00 0.01 0.00 39 1003.3
20260504234003 71 191 0.0 0.0 0.00 0.01 0.00 36 1003.2
20260504233000 71 191 0.0 0.9 0.00 0.01 0.00 33 1003.2
20260504232504 71 191 0.0 1.7 0.00 0.01 0.00 35 1003.2
20260504232005 72 183 0.0 3.5 0.00 0.01 0.00 33 1003.2
20260504231500 72 205 0.0 3.5 0.00 0.01 0.00 33 1003.2
20260504231002 72 205 0.9 2.6 0.00 0.01 0.00 34 1003.1
20260504230504 73 202 0.9 2.6 0.00 0.01 0.00 34 1003.2
20260504230006 73 165 0.0 1.7 0.00 0.01 0.00 33 1003.2
20260504225500 73 210 0.9 1.7 0.00 0.01 0.00 33 1003.2
20260504224002 74 222 0.9 2.6 0.00 0.01 0.00 33 1003.4
20260504223500 74 266 0.0 2.6 0.00 0.01 0.00 34 1003.3
20260504223004 74 165 0.9 6.1 0.00 0.01 0.00 33 1003.4
20260504222500 74 223 1.7 6.1 0.00 0.01 0.00 32 1003.4
20260504222000 74 210 2.6 4.3 0.00 0.01 0.00 34 1003.4
20260504221505 74 155 2.6 5.2 0.00 0.01 0.00 32 1003.5
20260504221000 74 157 2.6 5.2 0.00 0.01 0.00 34 1003.5
20260504220504 74 170 1.7 4.3 0.00 0.01 0.00 34 1003.5
20260504220007 74 174 1.7 4.3 0.00 0.01 0.00 37 1003.6
20260504215000 74 181 0.9 3.5 0.00 0.01 0.00 34 1003.6
20260504214500 74 279 0.9 2.6 0.00 0.01 0.00 36 1003.5
20260504214006 73 212 0.9 2.6 0.00 0.01 0.00 37 1003.6
20260504213504 73 151 0.9 4.3 0.00 0.01 0.00 36 1003.6
20260504213003 73 260 1.7 5.2 0.00 0.01 0.00 36 1003.6
20260504212500 73 201 1.7 5.2 0.00 0.01 0.00 38 1003.7
20260504212000 74 147 1.7 4.3 0.00 0.01 0.00 35 1003.7
20260504211504 74 152 1.7 6.1 0.00 0.01 0.00 35 1003.6
20260504211004 74 344 2.6 7.8 0.00 0.01 0.00 33 1003.7
20260504210502 74 153 1.7 6.1 0.00 0.01 0.00 35 1003.7
20260504210004 74 192 1.7 6.1 0.00 0.01 0.00 36 1003.6
20260504204500 73 149 1.7 5.2 0.00 0.01 0.00 39 1003.8
20260504204004 73 174 1.7 6.1 0.00 0.01 0.00 38 1003.9
20260504203502 73 178 2.6 7.0 0.00 0.01 0.00 36 1003.9
20260504203002 73 225 1.7 7.0 0.00 0.01 0.00 38 1003.9
20260504202500 72 190 1.7 4.3 0.00 0.01 0.00 41 1004.0
20260504202005 72 232 1.7 4.3 0.00 0.01 0.00 40 1004.1
20260504201500 72 180 1.7 4.3 0.00 0.01 0.00 40 1004.1
20260504201005 72 191 2.6 5.2 0.00 0.01 0.00 38 1004.1
20260504200500 73 161 2.6 9.6 0.00 0.01 0.00 37 1004.2
20260504200006 73 209 1.7 10.4 0.00 0.01 0.00 36 1004.3
20260504195459 73 184 1.7 7.0 0.00 0.01 0.00 43 1004.3
20260504194500 72 254 3.5 11.3 0.00 0.01 0.00 40 1004.6
20260504193500 72 138 1.7 5.2 0.00 0.01 0.00 41 1004.6
20260504193005 71 146 1.7 4.3 0.00 0.01 0.00 40 1004.6
20260504192459 71 161 2.6 7.0 0.00 0.01 0.00 41 1004.8
20260504191501 72 145 2.6 7.0 0.00 0.01 0.00 40 1004.9
20260504190459 72 236 2.6 7.0 0.00 0.01 0.00 42 1005.0
20260504190003 72 163 1.7 7.0 0.00 0.01 0.00 43 1005.1
20260504185500 71 283 1.7 4.3 0.00 0.01 0.00 42 1005.1
20260504185000 72 173 3.5 7.0 0.00 0.01 0.00 42 1005.0
20260504184501 71 139 4.3 8.7 0.00 0.01 0.00 43 1005.1
20260504184000 72 148 2.6 8.7 0.00 0.01 0.00 40 1005.2
20260504183500 72 148 1.7 8.7 0.00 0.01 0.00 43 1005.2
20260504183000 71 152 2.6 8.7 0.00 0.01 0.00 43 1005.3
20260504182502 71 179 2.6 7.0 0.00 0.01 0.00 45 1005.3
20260504182001 71 281 1.7 7.0 0.00 0.01 0.00 44 1005.3
20260504181500 71 144 2.6 7.0 0.00 0.01 0.00 44 1005.5
20260504181005 70 259 2.6 7.8 0.00 0.01 0.00 44 1005.5
20260504180501 70 283 2.6 7.0 0.00 0.01 0.00 43 1005.7
20260504180005 70 140 2.6 7.8 0.00 0.01 0.00 45 1005.7
20260504175500 70 279 1.7 7.8 0.00 0.01 0.00 45 1005.7
20260504174502 69 244 2.6 9.6 0.00 0.01 0.00 46 1005.8
20260504174003 69 268 1.7 7.8 0.00 0.01 0.00 45 1005.7
20260504173504 69 215 1.7 7.8 0.00 0.01 0.00 45 1005.8
20260504173000 68 142 2.6 7.0 0.00 0.01 0.00 46 1005.8
20260504172504 68 227 2.6 7.0 0.00 0.01 0.00 46 1005.9
20260504172004 68 254 3.5 10.4 0.00 0.01 0.00 46 1006.0
20260504171500 68 188 3.5 10.4 0.00 0.01 0.00 45 1005.9
20260504171000 67 163 2.6 10.4 0.00 0.01 0.00 47 1005.9
20260504170500 67 143 3.5 10.4 0.00 0.01 0.00 47 1005.9
20260504151002 62 171 3.5 8.7 0.00 0.01 0.00 47 1006.6
20260504150500 62 229 3.5 8.7 0.00 0.01 0.00 47 1006.7
20260504140959 59 141 2.6 9.6 0.00 0.01 0.00 52 1007.0
20260504140459 59 176 2.6 8.7 0.00 0.01 0.00 51 1007.0
20260504110500 52 148 2.6 6.1 0.00 0.01 0.00 56 1007.4
20260504100459 51 161 1.7 4.3 0.00 0.01 0.00 60 1007.5
20260504081459 50 155 0.9 3.5 0.00 0.01 0.00 58 1007.6
20260504080459 50 193 0.9 4.3 0.00 0.01 0.00 59 1007.8